Location: Solon
(41.3849°N, 81.4081°W)
Time: 08:10:21
(UTC-04:00)

Daily predictions for brighter satellites

Satellite Brightness Start Highest point End
(mag) Time Altitude Azimuth Time Altitude Azimuth Time Altitude Azimuth
Resurs 01 Rocket 1.8 20:38:11 10° SSE 20:42:31 56° ENE 20:46:54 10° N
Cosmos 2151 Rocket 3.5 20:39:00 10° S 20:43:21 68° E 20:47:45 10° NNE
Cosmos 2263 Rocket 2.4 20:39:53 10° NNW 20:45:31 57° ENE 20:51:04 10° SE
Envisat 3.4 20:42:10 10° SE 20:46:57 44° ENE 20:51:46 10° N
Abrixas 4.1 20:46:37 10° S 20:47:58 13° SE 20:49:11 10° ESE
Cosmos 1602 3.7 20:44:30 10° S 20:48:19 88° W 20:52:10 10° N
Cosmos 1741 Rocket 4.1 20:43:11 10° NNW 20:48:26 66° ENE 20:53:39 10° SSE
Cosmos 1844 Rocket 4.5 20:47:26 10° N 20:50:59 17° NE 20:54:31 10° E
Cosmos 1536 Rocket 3.5 20:46:56 10° N 20:51:15 66° E 20:55:33 10° SSE
Cosmos 2322 Rocket 2.3 20:47:04 10° SSW 20:52:46 90° NW 20:58:30 10° NNE
Lacrosse 5 1.8 20:48:33 10° SW 20:53:36 73° SE 20:58:40 10° NE
Atlas Centaur 2 4.1 20:48:09 10° WSW 20:55:28 33° SSW 21:02:11 10° SE
ATLAS 2AS CENTAUR R/B 3.0 20:51:46 10° SSW 20:59:19 68° ESE 21:07:22 10° NE
Helios 1B rocket 3.7 21:02:28 10° NE 21:05:36 21° E 21:08:10 13° SE
SL-16 R/B 2.6 21:00:48 10° SSW 21:06:26 71° WNW 21:12:07 10° NNE
Cosmos 2219 Rocket 3.9 21:08:26 12° E 21:08:26 12° E 21:10:17 10° ENE
H-2A R/B 4.1 21:07:47 10° ENE 21:08:21 10° ENE 21:08:54 10° NE
NOSS 2-3 (E) 4.2 21:05:13 10° SW 21:09:53 71° NW 21:15:21 10° NNE
Meteor 1-11 Rocket 3.9 21:08:15 10° SSW 21:14:03 80° W 21:19:47 10° N
Cosmos 1110 Rocket 4.1 21:10:59 10° S 21:15:59 53° ESE 21:21:01 10° NNE
Cosmos 2322 3.9 21:14:29 10° S 21:19:53 49° ESE 21:25:21 10° NE
Delta 2 Rocket 4.1 21:16:45 10° WSW 21:20:19 35° S 21:22:33 21° ESE
Cosmos 1500 4.4 21:19:37 20° ESE 21:20:44 23° E 21:23:49 10° NE
SeaSat 1 2.5 21:17:11 10° NE 21:22:02 54° ESE 21:26:50 10° S
Cosmos 2360 Rocket 2.1 21:18:30 10° S 21:24:03 66° ESE 21:29:39 10° NNE
Abrixas rocket 3.7 21:22:31 10° NW 21:25:26 29° NNE 21:27:31 16° ENE
Meteor 1-23 Rocket 4.1 21:20:03 10° N 21:25:38 78° ENE 21:31:14 10° SSE
Cosmos 1331 Rocket 4.0 21:21:59 10° S 21:27:04 59° ESE 21:32:13 10° NNE
Cosmos 405 4.4 21:27:09 21° E 21:27:09 21° E 21:29:51 10° NE
Okean 2 3.8 21:23:17 10° N 21:27:11 42° ENE 21:29:21 23° SE
Cosmos 482 Debris 4.3 21:25:25 10° SSW 21:29:52 42° SE 21:31:11 27° E
COSMOS 2428 3.3 21:27:57 10° SSE 21:33:03 34° ESE 21:38:10 10° NE
Cosmos 1975 4.0 21:33:35 24° E 21:33:44 24° E 21:36:57 10° NE
Cosmos 220 Rocket 4.3 21:34:19 10° NNW 21:38:36 67° WSW 21:42:04 16° S
CZ-4B DEB 3.1 21:42:43 39° ENE 21:42:43 39° ENE 21:45:22 10° N
Meteor 1-5 Rocket 4.3 21:40:28 10° SSW 21:45:45 71° W 21:51:04 10° N
NOAA 11 4.4 21:42:55 25° SE 21:46:01 54° ENE 21:51:23 10° N
Cosmos 2333 Rocket 3.6 21:47:12 20° E 21:47:12 20° E 21:50:09 10° NE
Cosmos 1025 Rocket 2.9 21:43:42 10° N 21:47:59 89° ENE 21:50:37 23° S
USA 186 4.3 21:47:50 10° SSW 21:50:30 22° W 21:53:11 10° NW
Cosmos 2333 4.4 21:46:04 10° S 21:51:25 45° ESE 21:56:44 10° NE
Okean 1 Rocket 3.8 21:48:50 10° SSW 21:53:05 53° W 21:57:24 10° N
NOSS 3-2 (A) 4.4 21:46:12 10° NNW 21:53:25 50° NE 21:57:47 26° ESE
Cosmos 1939 Rocket 3.7 21:51:35 13° S 21:54:54 47° W 21:58:42 10° NNW
USA 238 DEB 3.7 21:49:57 10° NNW 21:57:05 82° NE 22:01:04 29° SE
USA 238 3.7 21:50:02 10° NNW 21:57:11 81° NE 22:01:09 29° SE
Cosmos 2237 Rocket 4.1 22:00:25 13° ENE 22:00:25 13° ENE 22:01:18 10° ENE
Tiangong 1 3.2 21:56:34 10° WSW 21:58:00 15° SW 21:58:00 15° SW
Cosmos 1244 Rocket 4.4 21:53:50 11° S 21:59:40 71° E 22:05:47 10° NNE
Helios 1A 3.3 22:01:07 26° S 22:03:23 67° WSW 22:07:38 10° NNW
ATLAS 3B R/B 2.6 21:59:53 10° NW 22:06:37 77° WSW 22:09:58 31° SSE
Cosmos 1238 Rocket 4.0 22:00:33 10° N 22:07:14 69° E 22:10:05 34° SSE
SL-8 R/B 3.6 22:03:10 10° WNW 22:07:59 85° SSW 22:09:13 50° SE
Cosmos 1818 3.4 22:02:40 10° SSW 22:08:02 68° ESE 22:13:27 10° NE
ERS-1 Rocket 2.9 22:06:57 39° SSE 22:08:51 76° ENE 22:13:53 10° N
SPOT 1/Viking Rocket 4.3 22:08:48 33° E 22:09:37 35° ENE 22:14:18 10° N
YAOGAN 6 3.8 22:10:08 23° SSW 22:11:46 37° W 22:15:04 10° NNW
Cosmos 1066 Rocket 4.1 22:08:22 10° N 22:13:48 69° ENE 22:15:33 43° SSE
ARGOS 3.2 22:12:31 43° SE 22:14:04 62° ENE 22:19:21 10° N
Okean 1-7 Rocket 4.4 22:09:54 10° NNW 22:14:17 50° W 22:16:59 22° SSW
Molniya-1 4.0 22:12:58 10° NW 22:15:39 71° N 22:15:39 71° N
SL-08 RB Rocket 4.0 22:15:40 47° E 22:15:57 48° ENE 22:20:19 10° N
Resurs 01 Rocket 4.4 22:17:05 10° WSW 22:19:20 14° W 22:21:35 10° WNW
Meteor 1-29 3.4 22:16:57 10° N 22:20:20 59° WNW 22:20:46 52° WSW
BREEZE-M DEB (TANK) 4.0 22:19:23 10° WNW 22:20:54 16° NNW 22:20:54 16° NNW
BREEZE-M DEB (TANK) 4.2 22:22:01 10° W 22:25:46 53° N 22:38:52 10° ENE
YAOGAN 11 4.4 22:27:10 50° ENE 22:27:10 50° ENE 22:31:03 10° N
Cosmos 1743 4.0 22:29:25 31° NNE 22:29:25 31° NNE 22:31:37 10° NNE
Cosmos 2263 Rocket 4.4 22:24:53 10° NW 22:28:56 20° W 22:32:57 10° SW
Aureole 3 Rocket 4.1 22:21:09 10° N 22:29:13 88° W 22:31:40 40° S
USA 245 3.5 22:31:48 77° E 22:31:57 78° ENE 22:35:59 10° N
SPOT 5 2.7 22:31:51 68° E 22:32:04 70° ENE 22:36:39 10° N
NOSS 3-2 (C) 4.1 22:26:32 10° NNW 22:34:00 65° NE 22:36:46 43° ESE
Cosmos 1844 Rocket 2.6 22:29:56 10° NNW 22:35:39 85° WSW 22:36:49 58° SSE
Lacrosse 5 3.9 22:32:43 10° W 22:37:00 27° NNW 22:41:18 10° NNE
NOSS 0 Rocket 4.2 22:38:10 47° E 22:38:10 47° E 22:43:33 10° NE
Cosmos 2278 Rocket 2.8 22:32:24 10° N 22:37:45 40° ENE 22:38:10 40° ENE
MetOp-B 4.3 22:37:45 46° SSW 22:39:16 68° WSW 22:44:38 10° NNW
Helios 1B rocket 4.2 22:37:18 10° N 22:40:56 31° WNW 22:44:31 10° SW
Cosmos 1626 Rocket 4.4 22:36:51 10° N 22:39:56 38° NE 22:39:56 38° NE
Atlas Centaur 2 4.5 22:39:17 10° WSW 22:43:58 17° SSW 22:45:01 16° SSW
Cosmos 1892 Rocket 4.2 22:41:09 10° NNW 22:45:23 48° W 22:45:55 46° WSW
Meteor 1-21 4.2 22:41:09 10° N 22:46:45 62° ENE 22:46:52 62° E
H-2A R/B 1.8 22:46:54 81° E 22:46:58 82° ENE 22:51:57 10° N
Landsat 7 4.3 22:48:56 48° NE 22:48:56 48° NE 22:52:52 10° N
Cosmos 2219 Rocket 2.1 22:50:02 54° SSW 22:51:23 89° WNW 22:57:05 10° NNE
Cosmos 1745 Rocket 3.9 22:50:53 51° SSW 22:52:35 85° W 22:58:47 10° N
CENTAUR R/B 3.8 22:46:38 10° NNW 22:53:55 41° NE 22:56:35 33° E
Timation 1 Rocket 4.3 22:54:27 10° NNW 23:00:27 67° ENE 23:00:35 67° ENE
NOSS 3-4 (A) 3.4 22:56:26 20° SW 23:00:57 89° WNW 23:07:28 10° NE
NOSS 3-4 (C) 3.4 22:57:10 25° SSW 23:01:04 90° NNE 23:07:34 10° NE
Terra 2.7 23:04:46 41° NNE 23:04:46 41° NNE 23:08:13 10° N
SL-16 R/B 4.3 23:11:39 14° NE 23:11:39 14° NE 23:12:35 10° NE
Cosmos 1455 Rocket 4.3 23:09:49 36° W 23:10:14 36° WNW 23:14:23 10° N
Cosmos 1386 Rocket 4.5 23:11:06 64° SW 23:12:01 77° W 23:18:21 10° N
COSMOS 2428 4.2 23:12:01 10° WSW 23:17:15 36° WNW 23:22:30 10° N
GP-B 4.4 23:13:36 10° N 23:16:18 37° N 23:16:18 37° N
Cosmos 1844 4.3 23:15:14 10° NW 23:20:40 47° WSW 23:20:44 47° WSW
Cosmos 2333 Rocket 2.7 23:29:06 51° W 23:29:50 55° WNW 23:35:24 10° NNE
Cosmos 2237 Rocket 2.7 23:42:11 54° NNW 23:42:11 54° NNW 23:46:48 10° NNE
Cosmos 1980 4.4 23:48:45 52° NW 23:48:45 52° NW 23:53:56 10° NNE
H-2A R/B 4.2 23:57:37 25° NNW 23:57:37 25° NNW 23:59:31 10° NNW
